Location: Ash Swamp
(41.5170°N, 74.6157°W)
Time: 17:22:44
(UTC+00:00)

Cosmos 494 Rocket - Pass Details

Date: 14 July 2020
Orbit: 743 x 770 km, 74.1° (Epoch: 05 August)

Event Time Altitude Azimuth Distance (km) Brightness Sun altitude
Exits shadow 03:40:26 47° 96° (E) 993 4.3 -23.9°
Drops below altitude 10° 03:45:08 10° 31° (NNE) 2,274 6.9 -24.3°
Sets 03:47:34 0° 26° (NNE) 3,199 7.9 -24.4°
